COSMOS 2251 DEB, 37532

Orbit data source: Space-Track

COSMOS 2251 DEB, 37532 is space debris in LEO originally from a launch on Wed, 16 Jun 1993 UTC launched from the Plesetsk Missile And Space Complex (PKMTR). The debris from Iridium 33, an American commercial communications satellite, has been tracked extensively since its accidental collision with the defunct Russian satellite Cosmos 2251 in 2009. This event, occurring at high speed in low Earth orbit (LEO), generated thousands of pieces of space debris, significantly increasing the risk of further collisions. The Iridium 33 debris cloud has impacted space traffic management and orbital debris mitigation strategies, making it a subject of ongoing study in space situational awareness.

Loading next visibility...
Identifier
37532, 1993-036BNM
Orbit
LEO
Country
Flag of CISCIS
Related business
Manufacturer
Unknown
Mission
Spacecraft
Bus & Motor
Unknown
Mass
Unknown
Launch date (UTC)
1993-06-16 (33 years ago)
Launch vehicle
Unknown
Launch site
Plesetsk Missile And Space Complex (PKMTR)
Object type
Payload
Rocket body
Debris
Shape & HBR
Unknown shape, 0.1 m
Radar Cross Section
Small (<0.1 m²)

Expand to show TLE details & history
Last TLE update: 1 day ago

TLE from 1 day ago
0 COSMOS 2251 DEB
1 37532U 93036BNM 26174.86124215  .00000373  00000-0  11995-3 0  9991
2 37532  74.0491 217.7121 0016683 274.4623 263.0658 14.42704486877002
Epoch: 2026-06-23T20:40Z
TLE epoch observation values (Epoch: 2026-06-23T20:40:11.321Z)
Latitude
2.46316°
Longitude
174.93749°
Altitude
753.366 km
Speed
7.477 km/s
True Right ascension
02h 28m 02s
True Declination
2° 26' 54"
Sunlit
Object was in daylight at epoch
Visualization orbit readout
Latitude
Unknown
Longitude
Unknown
Altitude
Unknown
Speed
Unknown
Apparent Right ascension
Unknown
Apparent Declination
Unknown
Sunlit
N/A
Visualization observer readout
Local Sidereal Time
14:35:44
Azimuth
Unknown
Elevation
Unknown
Doppler factor
Unknown
Orbital elements
Apogee altitude
759.079 km
Perigee altitude
735.305 km
Semi-major axis
7,125.329 km
Eccentricity
0.00167
Inclination
74.0491°
RAAN
217.7121°
Arg. of periapsis
274.4623°
True anomaly
262.87607°
Mean anomaly
263.0658°
Eccentric anomaly
262.97093°
Mean motion
3.60858 °/min
Orbital period
99.76 mins
BSTAR
0.00011995

Documentation

Showing up to 5 results
|